{"data":{"norad_id":48808,"epoch":"2026-05-25T00:49:06.434400Z","epoch_age_seconds":78926,"freshness":"FRESH","line1":"1 48808U 21047A   26145.03410225 -.00000333  00000+0  00000+0 0  9995","line2":"2 48808   0.0982  73.5060 0005318 289.1694 356.9785  1.00271457 18342","mean_motion":1.00271457,"eccentricity":0.0005318,"inclination_deg":0.0982,"raan_deg":73.506,"arg_perigee_deg":289.1694,"mean_anomaly_deg":356.9785,"bstar":0,"rev_number":1834,"period_min":1436.1016016751,"perigee_km":35764.263658392,"apogee_km":35809.110165104,"semimajor_km":42164.823911748,"source":"CELESTRAK","updated_at":"2026-05-25T13:38:14.099686Z"}}